Year,Month,Day,Hour,Minute,Value (Times are PST for windgust in km/hr)
2009,03,20,00,00,0.00
2009,03,20,00,01,0.00
2009,03,20,00,02,0.00
2009,03,20,00,03,0.00
2009,03,20,00,04,0.00
2009,03,20,00,05,0.00
2009,03,20,00,06,0.00
2009,03,20,00,07,0.00
2009,03,20,00,08,0.00
2009,03,20,00,09,0.00
2009,03,20,00,10,0.00
2009,03,20,00,11,0.00
2009,03,20,00,12,0.00
2009,03,20,00,13,0.00
2009,03,20,00,14,0.00
2009,03,20,00,15,0.00
2009,03,20,00,16,0.00
2009,03,20,00,17,0.00
2009,03,20,00,18,0.00
2009,03,20,00,19,0.00
2009,03,20,00,20,0.00
2009,03,20,00,21,0.00
2009,03,20,00,22,0.00
2009,03,20,00,23,1.60
2009,03,20,00,24,0.00
2009,03,20,00,25,0.00
2009,03,20,00,26,0.00
2009,03,20,00,27,0.00
2009,03,20,00,28,0.00
2009,03,20,00,29,0.00
2009,03,20,00,30,0.00
2009,03,20,00,31,1.60
2009,03,20,00,32,0.00
2009,03,20,00,33,0.00
2009,03,20,00,34,0.00
2009,03,20,00,35,0.00
2009,03,20,00,36,0.00
2009,03,20,00,37,0.00
2009,03,20,00,38,0.00
2009,03,20,00,39,0.00
2009,03,20,00,40,0.00
2009,03,20,00,41,1.60
2009,03,20,00,42,0.00
2009,03,20,00,43,0.00
2009,03,20,00,44,0.00
2009,03,20,00,45,0.00
2009,03,20,00,46,0.00
2009,03,20,00,47,0.00
2009,03,20,00,48,0.00
2009,03,20,00,49,0.00
2009,03,20,00,50,0.00
2009,03,20,00,51,0.00
2009,03,20,00,52,0.00
2009,03,20,00,53,0.00
2009,03,20,00,54,0.00
2009,03,20,00,55,0.00
2009,03,20,00,56,0.00
2009,03,20,00,57,0.00
2009,03,20,00,58,0.00
2009,03,20,00,59,0.00
2009,03,20,01,00,1.60
2009,03,20,01,01,0.00
2009,03,20,01,02,1.60
2009,03,20,01,03,1.60
2009,03,20,01,04,0.00
2009,03,20,01,05,0.00
2009,03,20,01,06,0.00
2009,03,20,01,07,1.60
2009,03,20,01,08,1.60
2009,03,20,01,09,1.60
2009,03,20,01,10,0.00
2009,03,20,01,11,0.00
2009,03,20,01,12,0.00
2009,03,20,01,13,1.60
2009,03,20,01,14,1.60
2009,03,20,01,15,0.00
2009,03,20,01,16,0.00
2009,03,20,01,17,0.00
2009,03,20,01,18,0.00
2009,03,20,01,19,0.00
2009,03,20,01,20,0.00
2009,03,20,01,21,0.00
2009,03,20,01,22,1.60
2009,03,20,01,23,0.00
2009,03,20,01,24,0.00
2009,03,20,01,25,0.00
2009,03,20,01,26,0.00
2009,03,20,01,27,0.00
2009,03,20,01,28,1.60
2009,03,20,01,29,0.00
2009,03,20,01,30,1.60
2009,03,20,01,31,3.20
2009,03,20,01,32,1.60
2009,03,20,01,33,0.00
2009,03,20,01,34,1.60
2009,03,20,01,35,1.60
2009,03,20,01,36,1.60
2009,03,20,01,37,0.00
2009,03,20,01,38,0.00
2009,03,20,01,39,0.00
2009,03,20,01,40,1.60
2009,03,20,01,41,1.60
2009,03,20,01,42,0.00
2009,03,20,01,43,1.60
2009,03,20,01,44,0.00
2009,03,20,01,45,0.00
2009,03,20,01,46,0.00
2009,03,20,01,47,0.00
2009,03,20,01,48,0.00
2009,03,20,01,49,0.00
2009,03,20,01,50,0.00
2009,03,20,01,51,0.00
2009,03,20,01,52,0.00
2009,03,20,01,53,0.00
2009,03,20,01,54,0.00
2009,03,20,01,55,0.00
2009,03,20,01,56,0.00
2009,03,20,01,57,0.00
2009,03,20,01,58,1.60
2009,03,20,01,59,1.60
2009,03,20,02,00,0.00
2009,03,20,02,01,0.00
2009,03,20,02,02,0.00
2009,03,20,02,03,0.00
2009,03,20,02,04,1.60
2009,03,20,02,05,1.60
2009,03,20,02,06,0.00
2009,03,20,02,07,4.80
2009,03,20,02,08,0.00
2009,03,20,02,09,4.80
2009,03,20,02,10,6.40
2009,03,20,02,11,0.00
2009,03,20,02,12,0.00
2009,03,20,02,13,0.00
2009,03,20,02,14,0.00
2009,03,20,02,15,0.00
2009,03,20,02,16,0.00
2009,03,20,02,17,0.00
2009,03,20,02,18,0.00
2009,03,20,02,19,0.00
2009,03,20,02,20,0.00
2009,03,20,02,21,0.00
2009,03,20,02,22,0.00
2009,03,20,02,23,0.00
2009,03,20,02,24,0.00
2009,03,20,02,25,0.00
2009,03,20,02,26,0.00
2009,03,20,02,27,0.00
2009,03,20,02,28,0.00
2009,03,20,02,29,0.00
2009,03,20,02,30,0.00
2009,03,20,02,31,0.00
2009,03,20,02,32,0.00
2009,03,20,02,33,0.00
2009,03,20,02,34,0.00
2009,03,20,02,35,1.60
2009,03,20,02,36,1.60
2009,03,20,02,37,3.20
2009,03,20,02,38,0.00
2009,03,20,02,39,4.80
2009,03,20,02,40,4.80
2009,03,20,02,41,0.00
2009,03,20,02,42,3.20
2009,03,20,02,43,4.80
2009,03,20,02,44,3.20
2009,03,20,02,45,1.60
2009,03,20,02,46,1.60
2009,03,20,02,47,3.20
2009,03,20,02,48,8.10
2009,03,20,02,49,0.00
2009,03,20,02,50,1.60
2009,03,20,02,51,0.00
2009,03,20,02,52,3.20
2009,03,20,02,53,0.00
2009,03,20,02,54,1.60
2009,03,20,02,55,3.20
2009,03,20,02,56,4.80
2009,03,20,02,57,1.60
2009,03,20,02,58,1.60
2009,03,20,02,59,0.00
2009,03,20,03,00,3.20
2009,03,20,03,01,8.10
2009,03,20,03,02,9.60
2009,03,20,03,03,4.80
2009,03,20,03,04,3.20
2009,03,20,03,05,1.60
2009,03,20,03,06,0.00
2009,03,20,03,07,0.00
2009,03,20,03,08,0.00
2009,03,20,03,09,1.60
2009,03,20,03,10,1.60
2009,03,20,03,11,6.40
2009,03,20,03,12,6.40
2009,03,20,03,13,3.20
2009,03,20,03,14,4.80
2009,03,20,03,15,1.60
2009,03,20,03,16,3.20
2009,03,20,03,17,4.80
2009,03,20,03,18,9.60
2009,03,20,03,19,6.40
2009,03,20,03,20,8.10
2009,03,20,03,21,9.60
2009,03,20,03,22,8.10
2009,03,20,03,23,4.80
2009,03,20,03,24,8.10
2009,03,20,03,25,1.60
2009,03,20,03,26,11.30
2009,03,20,03,27,8.10
2009,03,20,03,28,1.60
2009,03,20,03,29,6.40
2009,03,20,03,30,6.40
2009,03,20,03,31,9.60
2009,03,20,03,32,9.60
2009,03,20,03,33,8.10
2009,03,20,03,34,6.40
2009,03,20,03,35,6.40
2009,03,20,03,36,14.50
2009,03,20,03,37,4.80
2009,03,20,03,38,6.40
2009,03,20,03,39,8.10
2009,03,20,03,40,9.60
2009,03,20,03,41,12.90
2009,03,20,03,42,11.30
2009,03,20,03,43,11.30
2009,03,20,03,44,9.60
2009,03,20,03,45,8.10
2009,03,20,03,46,8.10
2009,03,20,03,47,6.40
2009,03,20,03,48,6.40
2009,03,20,03,49,11.30
2009,03,20,03,50,4.80
2009,03,20,03,51,16.10
2009,03,20,03,52,9.60
2009,03,20,03,53,8.10
2009,03,20,03,54,4.80
2009,03,20,03,55,0.00
2009,03,20,03,56,4.80
2009,03,20,03,57,6.40
2009,03,20,03,58,6.40
2009,03,20,03,59,16.10
2009,03,20,04,00,11.30
2009,03,20,04,01,22.50
2009,03,20,04,02,14.50
2009,03,20,04,03,11.30
2009,03,20,04,04,14.50
2009,03,20,04,05,17.70
2009,03,20,04,06,11.30
2009,03,20,04,07,17.70
2009,03,20,04,08,9.60
2009,03,20,04,09,16.10
2009,03,20,04,10,14.50
2009,03,20,04,11,17.70
2009,03,20,04,12,19.30
2009,03,20,04,13,11.30
2009,03,20,04,14,19.30
2009,03,20,04,15,11.30
2009,03,20,04,16,17.70
2009,03,20,04,17,14.50
2009,03,20,04,18,20.90
2009,03,20,04,19,20.90
2009,03,20,04,20,9.60
2009,03,20,04,21,14.50
2009,03,20,04,22,9.60
2009,03,20,04,23,16.10
2009,03,20,04,24,24.20
2009,03,20,04,25,9.60
2009,03,20,04,26,8.10
2009,03,20,04,27,11.30
2009,03,20,04,28,16.10
2009,03,20,04,29,11.30
2009,03,20,04,30,9.60
2009,03,20,04,31,9.60
2009,03,20,04,32,17.70
2009,03,20,04,33,20.90
2009,03,20,04,34,14.50
2009,03,20,04,35,14.50
2009,03,20,04,36,17.70
2009,03,20,04,37,19.30
2009,03,20,04,38,9.60
2009,03,20,04,39,11.30
2009,03,20,04,40,8.10
2009,03,20,04,41,16.10
2009,03,20,04,42,11.30
2009,03,20,04,43,17.70
2009,03,20,04,44,19.30
2009,03,20,04,45,16.10
2009,03,20,04,46,14.50
2009,03,20,04,47,11.30
2009,03,20,04,48,11.30
2009,03,20,04,49,14.50
2009,03,20,04,50,9.60
2009,03,20,04,51,16.10
2009,03,20,04,52,16.10
2009,03,20,04,53,17.70
2009,03,20,04,54,8.10
2009,03,20,04,55,19.30
2009,03,20,04,56,20.90
2009,03,20,04,57,16.10
2009,03,20,04,58,14.50
2009,03,20,04,59,14.50
2009,03,20,05,00,16.10
2009,03,20,05,01,14.50
2009,03,20,05,02,16.10
2009,03,20,05,03,16.10
2009,03,20,05,04,11.30
2009,03,20,05,05,17.70
2009,03,20,05,06,11.30
2009,03,20,05,07,17.70
2009,03,20,05,08,11.30
2009,03,20,05,09,16.10
2009,03,20,05,10,12.90
2009,03,20,05,11,9.60
2009,03,20,05,12,11.30
2009,03,20,05,13,8.10
2009,03,20,05,14,11.30
2009,03,20,05,15,20.90
2009,03,20,05,16,14.50
2009,03,20,05,17,19.30
2009,03,20,05,18,16.10
2009,03,20,05,19,16.10
2009,03,20,05,20,12.90
2009,03,20,05,21,8.10
2009,03,20,05,22,6.40
2009,03,20,05,23,11.30
2009,03,20,05,24,17.70
2009,03,20,05,25,17.70
2009,03,20,05,26,16.10
2009,03,20,05,27,8.10
2009,03,20,05,28,8.10
2009,03,20,05,29,11.30
2009,03,20,05,30,16.10
2009,03,20,05,31,8.10
2009,03,20,05,32,8.10
2009,03,20,05,33,11.30
2009,03,20,05,34,9.60
2009,03,20,05,35,8.10
2009,03,20,05,36,9.60
2009,03,20,05,37,14.50
2009,03,20,05,38,11.30
2009,03,20,05,39,11.30
2009,03,20,05,40,9.60
2009,03,20,05,41,9.60
2009,03,20,05,42,14.50
2009,03,20,05,43,4.80
2009,03,20,05,44,8.10
2009,03,20,05,45,12.90
2009,03,20,05,46,6.40
2009,03,20,05,47,6.40
2009,03,20,05,48,3.20
2009,03,20,05,49,9.60
2009,03,20,05,50,8.10
2009,03,20,05,51,6.40
2009,03,20,05,52,11.30
2009,03,20,05,53,8.10
2009,03,20,05,54,8.10
2009,03,20,05,55,3.20
2009,03,20,05,56,3.20
2009,03,20,05,57,4.80
2009,03,20,05,58,8.10
2009,03,20,05,59,3.20
2009,03,20,06,00,1.60
2009,03,20,06,01,1.60
2009,03,20,06,02,1.60
2009,03,20,06,03,1.60
2009,03,20,06,04,0.00
2009,03,20,06,05,1.60
2009,03,20,06,06,1.60
2009,03,20,06,07,0.00
2009,03,20,06,08,0.00
2009,03,20,06,09,4.80
2009,03,20,06,10,4.80
2009,03,20,06,11,4.80
2009,03,20,06,12,1.60
2009,03,20,06,13,0.00
2009,03,20,06,14,0.00
2009,03,20,06,15,0.00
2009,03,20,06,16,1.60
2009,03,20,06,17,0.00
2009,03,20,06,18,0.00
2009,03,20,06,19,0.00
2009,03,20,06,20,0.00
2009,03,20,06,21,0.00
2009,03,20,06,22,0.00
2009,03,20,06,23,0.00
2009,03,20,06,24,0.00
2009,03,20,06,25,1.60
2009,03,20,06,26,0.00
2009,03,20,06,27,0.00
2009,03,20,06,28,0.00
2009,03,20,06,29,0.00
2009,03,20,06,30,0.00
2009,03,20,06,31,0.00
2009,03,20,06,32,0.00
2009,03,20,06,33,0.00
2009,03,20,06,34,0.00
2009,03,20,06,35,0.00
2009,03,20,06,36,0.00
2009,03,20,06,37,0.00
2009,03,20,06,38,0.00
2009,03,20,06,39,0.00
2009,03,20,06,40,0.00
2009,03,20,06,41,0.00
2009,03,20,06,42,0.00
2009,03,20,06,43,1.60
2009,03,20,06,44,1.60
2009,03,20,06,45,0.00
2009,03,20,06,46,0.00
2009,03,20,06,47,0.00
2009,03,20,06,48,0.00
2009,03,20,06,49,0.00
2009,03,20,06,50,0.00
2009,03,20,06,51,0.00
2009,03,20,06,52,0.00
2009,03,20,06,53,0.00
2009,03,20,06,54,0.00
2009,03,20,06,55,1.60
2009,03,20,06,56,0.00
2009,03,20,06,57,0.00
2009,03,20,06,58,1.60
2009,03,20,06,59,0.00
2009,03,20,07,00,0.00
2009,03,20,07,01,0.00
2009,03,20,07,02,0.00
2009,03,20,07,03,1.60
2009,03,20,07,04,1.60
2009,03,20,07,05,1.60
2009,03,20,07,06,1.60
2009,03,20,07,07,1.60
2009,03,20,07,08,3.20
2009,03,20,07,09,1.60
2009,03,20,07,10,3.20
2009,03,20,07,11,1.60
2009,03,20,07,12,1.60
2009,03,20,07,13,0.00
2009,03,20,07,14,1.60
2009,03,20,07,15,1.60
2009,03,20,07,16,3.20
2009,03,20,07,17,3.20
2009,03,20,07,18,3.20
2009,03,20,07,19,1.60
2009,03,20,07,20,1.60
2009,03,20,07,21,1.60
2009,03,20,07,22,0.00
2009,03,20,07,23,1.60
2009,03,20,07,24,1.60
2009,03,20,07,25,1.60
2009,03,20,07,26,0.00
2009,03,20,07,27,1.60
2009,03,20,07,28,3.20
2009,03,20,07,29,3.20
2009,03,20,07,30,3.20
2009,03,20,07,31,1.60
2009,03,20,07,32,1.60
2009,03,20,07,33,0.00
2009,03,20,07,34,0.00
2009,03,20,07,35,0.00
2009,03,20,07,36,0.00
2009,03,20,07,37,0.00
2009,03,20,07,38,1.60
2009,03,20,07,39,3.20
2009,03,20,07,40,0.00
2009,03,20,07,41,0.00
2009,03,20,07,42,0.00
2009,03,20,07,43,0.00
2009,03,20,07,44,0.00
2009,03,20,07,45,0.00
2009,03,20,07,46,0.00
2009,03,20,07,47,0.00
2009,03,20,07,48,1.60
2009,03,20,07,49,0.00
2009,03,20,07,50,0.00
2009,03,20,07,51,0.00
2009,03,20,07,52,0.00
2009,03,20,07,53,0.00
2009,03,20,07,54,0.00
2009,03,20,07,55,0.00
2009,03,20,07,56,0.00
2009,03,20,07,57,0.00
2009,03,20,07,58,0.00
2009,03,20,07,59,0.00
2009,03,20,08,00,0.00
2009,03,20,08,01,0.00
2009,03,20,08,02,0.00
2009,03,20,08,03,0.00
2009,03,20,08,04,1.60
2009,03,20,08,05,0.00
2009,03,20,08,06,0.00
2009,03,20,08,07,0.00
2009,03,20,08,08,0.00
2009,03,20,08,09,0.00
2009,03,20,08,10,0.00
2009,03,20,08,11,0.00
2009,03,20,08,12,0.00
2009,03,20,08,13,0.00
2009,03,20,08,14,0.00
2009,03,20,08,15,1.60
2009,03,20,08,16,1.60
2009,03,20,08,17,0.00
2009,03,20,08,18,1.60
2009,03,20,08,19,1.60
2009,03,20,08,20,1.60
2009,03,20,08,21,1.60
2009,03,20,08,22,0.00
2009,03,20,08,23,0.00
2009,03,20,08,24,0.00
2009,03,20,08,25,0.00
2009,03,20,08,26,0.00
2009,03,20,08,27,0.00
2009,03,20,08,28,0.00
2009,03,20,08,29,0.00
2009,03,20,08,30,0.00
2009,03,20,08,31,0.00
2009,03,20,08,32,0.00
2009,03,20,08,33,0.00
2009,03,20,08,34,0.00
2009,03,20,08,35,0.00
2009,03,20,08,36,0.00
2009,03,20,08,37,0.00
2009,03,20,08,38,0.00
2009,03,20,08,39,0.00
2009,03,20,08,40,0.00
2009,03,20,08,41,0.00
2009,03,20,08,42,0.00
2009,03,20,08,43,1.60
2009,03,20,08,44,1.60
2009,03,20,08,45,0.00
2009,03,20,08,46,1.60
2009,03,20,08,47,1.60
2009,03,20,08,48,0.00
2009,03,20,08,49,0.00
2009,03,20,08,50,0.00
2009,03,20,08,51,0.00
2009,03,20,08,52,1.60
2009,03,20,08,53,0.00
2009,03,20,08,54,0.00
2009,03,20,08,55,1.60
2009,03,20,08,56,0.00
2009,03,20,08,57,1.60
2009,03,20,08,58,0.00
2009,03,20,08,59,0.00
2009,03,20,09,00,0.00
2009,03,20,09,01,0.00
2009,03,20,09,02,0.00
2009,03,20,09,03,0.00
2009,03,20,09,04,0.00
2009,03,20,09,05,0.00
2009,03,20,09,06,0.00
2009,03,20,09,07,1.60
2009,03,20,09,08,1.60
2009,03,20,09,09,1.60
2009,03,20,09,10,1.60
2009,03,20,09,11,1.60
2009,03,20,09,12,0.00
2009,03,20,09,13,0.00
2009,03,20,09,14,0.00
2009,03,20,09,15,0.00
2009,03,20,09,16,3.20
2009,03,20,09,17,1.60
2009,03,20,09,18,1.60
2009,03,20,09,19,0.00
2009,03,20,09,20,3.20
2009,03,20,09,21,1.60
2009,03,20,09,22,1.60
2009,03,20,09,23,0.00
2009,03,20,09,24,1.60
2009,03,20,09,25,0.00
2009,03,20,09,26,0.00
2009,03,20,09,27,1.60
2009,03,20,09,28,1.60
2009,03,20,09,29,1.60
2009,03,20,09,30,0.00
2009,03,20,09,31,1.60
2009,03,20,09,32,1.60
2009,03,20,09,33,1.60
2009,03,20,09,34,3.20
2009,03,20,09,35,1.60
2009,03,20,09,36,0.00
2009,03,20,09,37,0.00
2009,03,20,09,38,1.60
2009,03,20,09,39,1.60
2009,03,20,09,40,1.60
2009,03,20,09,41,1.60
2009,03,20,09,42,0.00
2009,03,20,09,43,0.00
2009,03,20,09,44,1.60
2009,03,20,09,45,3.20
2009,03,20,09,46,1.60
2009,03,20,09,47,1.60
2009,03,20,09,48,1.60
2009,03,20,09,49,3.20
2009,03,20,09,50,1.60
2009,03,20,09,51,0.00
2009,03,20,09,52,0.00
2009,03,20,09,53,1.60
2009,03,20,09,54,1.60
2009,03,20,09,55,3.20
2009,03,20,09,56,1.60
2009,03,20,09,57,1.60
2009,03,20,09,58,3.20
2009,03,20,09,59,3.20
2009,03,20,10,00,1.60
2009,03,20,10,01,0.00
2009,03,20,10,02,0.00
2009,03,20,10,03,0.00
2009,03,20,10,04,0.00
2009,03,20,10,05,1.60
2009,03,20,10,06,1.60
2009,03,20,10,07,1.60
2009,03,20,10,08,0.00
2009,03,20,10,09,0.00
2009,03,20,10,10,0.00
2009,03,20,10,11,0.00
2009,03,20,10,12,1.60
2009,03,20,10,13,0.00
2009,03,20,10,14,0.00
2009,03,20,10,15,0.00
2009,03,20,10,16,0.00
2009,03,20,10,17,0.00
2009,03,20,10,18,0.00
2009,03,20,10,19,0.00
2009,03,20,10,20,0.00
2009,03,20,10,21,0.00
2009,03,20,10,22,1.60
2009,03,20,10,23,1.60
2009,03,20,10,24,1.60
2009,03,20,10,25,1.60
2009,03,20,10,26,1.60
2009,03,20,10,27,0.00
2009,03,20,10,28,1.60
2009,03,20,10,29,0.00
2009,03,20,10,30,0.00
2009,03,20,10,31,0.00
2009,03,20,10,32,0.00
2009,03,20,10,33,0.00
2009,03,20,10,34,0.00
2009,03,20,10,35,1.60
2009,03,20,10,36,0.00
2009,03,20,10,37,0.00
2009,03,20,10,38,0.00
2009,03,20,10,39,0.00
2009,03,20,10,40,0.00
2009,03,20,10,41,0.00
2009,03,20,10,42,1.60
2009,03,20,10,43,1.60
2009,03,20,10,44,0.00
2009,03,20,10,45,1.60
2009,03,20,10,46,3.20
2009,03,20,10,47,1.60
2009,03,20,10,48,0.00
2009,03,20,10,49,1.60
2009,03,20,10,50,0.00
2009,03,20,10,51,0.00
2009,03,20,10,52,1.60
2009,03,20,10,53,1.60
2009,03,20,10,54,3.20
2009,03,20,10,55,4.80
2009,03,20,10,56,1.60
2009,03,20,10,57,1.60
2009,03,20,10,58,3.20
2009,03,20,10,59,3.20
2009,03,20,11,00,1.60
2009,03,20,11,01,0.00
2009,03,20,11,02,1.60
2009,03,20,11,03,3.20
2009,03,20,11,04,4.80
2009,03,20,11,05,4.80
2009,03,20,11,06,6.40
2009,03,20,11,07,1.60
2009,03,20,11,08,1.60
2009,03,20,11,09,1.60
2009,03,20,11,10,1.60
2009,03,20,11,11,1.60
2009,03,20,11,12,0.00
2009,03,20,11,13,4.80
2009,03,20,11,14,4.80
2009,03,20,11,15,6.40
2009,03,20,11,16,1.60
2009,03,20,11,17,6.40
2009,03,20,11,18,4.80
2009,03,20,11,19,4.80
2009,03,20,11,20,3.20
2009,03,20,11,21,6.40
2009,03,20,11,22,1.60
2009,03,20,11,23,3.20
2009,03,20,11,24,4.80
2009,03,20,11,25,3.20
2009,03,20,11,26,4.80
2009,03,20,11,27,1.60
2009,03,20,11,28,4.80
2009,03,20,11,29,1.60
2009,03,20,11,30,1.60
2009,03,20,11,31,6.40
2009,03,20,11,32,8.10
2009,03,20,11,33,8.10
2009,03,20,11,34,4.80
2009,03,20,11,35,0.00
2009,03,20,11,36,4.80
2009,03,20,11,37,1.60
2009,03,20,11,38,0.00
2009,03,20,11,39,3.20
2009,03,20,11,40,4.80
2009,03,20,11,41,4.80
2009,03,20,11,42,1.60
2009,03,20,11,43,6.40
2009,03,20,11,44,4.80
2009,03,20,11,45,3.20
2009,03,20,11,46,1.60
2009,03,20,11,47,3.20
2009,03,20,11,48,1.60
2009,03,20,11,49,0.00
2009,03,20,11,50,0.00
2009,03,20,11,51,1.60
2009,03,20,11,52,1.60
2009,03,20,11,53,1.60
2009,03,20,11,54,1.60
2009,03,20,11,55,1.60
2009,03,20,11,56,0.00
2009,03,20,11,57,0.00
2009,03,20,11,58,0.00
2009,03,20,11,59,3.20
2009,03,20,12,00,1.60
2009,03,20,12,01,1.60
2009,03,20,12,02,3.20
2009,03,20,12,03,0.00
2009,03,20,12,04,1.60
2009,03,20,12,05,1.60
2009,03,20,12,06,0.00
2009,03,20,12,07,0.00
2009,03,20,12,08,3.20
2009,03,20,12,09,6.40
2009,03,20,12,10,4.80
2009,03,20,12,11,3.20
2009,03,20,12,12,3.20
2009,03,20,12,13,1.60
2009,03,20,12,14,1.60
2009,03,20,12,15,1.60
2009,03,20,12,16,1.60
2009,03,20,12,17,1.60
2009,03,20,12,18,4.80
2009,03,20,12,19,12.90
2009,03,20,12,20,3.20
2009,03,20,12,21,4.80
2009,03,20,12,22,8.10
2009,03,20,12,23,9.60
2009,03,20,12,24,4.80
2009,03,20,12,25,1.60
2009,03,20,12,26,1.60
2009,03,20,12,27,8.10
2009,03,20,12,28,4.80
2009,03,20,12,29,1.60
2009,03,20,12,30,1.60
2009,03,20,12,31,1.60
2009,03,20,12,32,1.60
2009,03,20,12,33,6.40
2009,03,20,12,34,6.40
2009,03,20,12,35,3.20
2009,03,20,12,36,1.60
2009,03,20,12,37,8.10
2009,03,20,12,38,4.80
2009,03,20,12,39,4.80
2009,03,20,12,40,4.80
2009,03,20,12,41,1.60
2009,03,20,12,42,0.00
2009,03,20,12,43,3.20
2009,03,20,12,44,1.60
2009,03,20,12,45,3.20
2009,03,20,12,46,3.20
2009,03,20,12,47,1.60
2009,03,20,12,48,1.60
2009,03,20,12,49,1.60
2009,03,20,12,50,1.60
2009,03,20,12,51,4.80
2009,03,20,12,52,0.00
2009,03,20,12,53,6.40
2009,03,20,12,54,1.60
2009,03,20,12,55,8.10
2009,03,20,12,56,8.10
2009,03,20,12,57,3.20
2009,03,20,12,58,1.60
2009,03,20,12,59,3.20
2009,03,20,13,00,9.60
2009,03,20,13,01,8.10
2009,03,20,13,02,3.20
2009,03,20,13,03,6.40
2009,03,20,13,04,3.20
2009,03,20,13,05,9.60
2009,03,20,13,06,3.20
2009,03,20,13,07,6.40
2009,03,20,13,08,3.20
2009,03,20,13,09,3.20
2009,03,20,13,10,6.40
2009,03,20,13,11,1.60
2009,03,20,13,12,1.60
2009,03,20,13,13,3.20
2009,03,20,13,14,6.40
2009,03,20,13,15,4.80
2009,03,20,13,16,3.20
2009,03,20,13,17,3.20
2009,03,20,13,18,6.40
2009,03,20,13,19,6.40
2009,03,20,13,20,6.40
2009,03,20,13,21,6.40
2009,03,20,13,22,3.20
2009,03,20,13,23,6.40
2009,03,20,13,24,4.80
2009,03,20,13,25,4.80
2009,03,20,13,26,3.20
2009,03,20,13,27,1.60
2009,03,20,13,28,8.10
2009,03,20,13,29,4.80
2009,03,20,13,30,1.60
2009,03,20,13,31,1.60
2009,03,20,13,32,1.60
2009,03,20,13,33,1.60
2009,03,20,13,34,6.40
2009,03,20,13,35,3.20
2009,03,20,13,36,3.20
2009,03,20,13,37,3.20
2009,03,20,13,38,6.40
2009,03,20,13,39,6.40
2009,03,20,13,40,6.40
2009,03,20,13,41,11.30
2009,03,20,13,42,16.10
2009,03,20,13,43,3.20
2009,03,20,13,44,8.10
2009,03,20,13,45,4.80
2009,03,20,13,46,4.80
2009,03,20,13,47,3.20
2009,03,20,13,48,4.80
2009,03,20,13,49,6.40
2009,03,20,13,50,4.80
2009,03,20,13,51,1.60
2009,03,20,13,52,6.40
2009,03,20,13,53,1.60
2009,03,20,13,54,6.40
2009,03,20,13,55,6.40
2009,03,20,13,56,3.20
2009,03,20,13,57,3.20
2009,03,20,13,58,6.40
2009,03,20,13,59,3.20
2009,03,20,14,00,4.80
2009,03,20,14,01,12.90
2009,03,20,14,02,8.10
2009,03,20,14,03,3.20
2009,03,20,14,04,3.20
2009,03,20,14,05,0.00
2009,03,20,14,06,1.60
2009,03,20,14,07,3.20
2009,03,20,14,08,11.30
2009,03,20,14,09,4.80
2009,03,20,14,10,3.20
2009,03,20,14,11,1.60
2009,03,20,14,12,4.80
2009,03,20,14,13,3.20
2009,03,20,14,14,3.20
2009,03,20,14,15,11.30
2009,03,20,14,16,3.20
2009,03,20,14,17,3.20
2009,03,20,14,18,3.20
2009,03,20,14,19,4.80
2009,03,20,14,20,1.60
2009,03,20,14,21,1.60
2009,03,20,14,22,3.20
2009,03,20,14,23,9.60
2009,03,20,14,24,4.80
2009,03,20,14,25,1.60
2009,03,20,14,26,8.10
2009,03,20,14,27,9.60
2009,03,20,14,28,4.80
2009,03,20,14,29,3.20
2009,03,20,14,30,1.60
2009,03,20,14,31,4.80
2009,03,20,14,32,6.40
2009,03,20,14,33,6.40
2009,03,20,14,34,9.60
2009,03,20,14,35,6.40
2009,03,20,14,36,4.80
2009,03,20,14,37,6.40
2009,03,20,14,38,30.60
2009,03,20,14,39,14.50
2009,03,20,14,40,17.70
2009,03,20,14,41,16.10
2009,03,20,14,42,9.60
2009,03,20,14,43,6.40
2009,03,20,14,44,25.70
2009,03,20,14,45,19.30
2009,03,20,14,46,11.30
2009,03,20,14,47,11.30
2009,03,20,14,48,11.30
2009,03,20,14,49,1.60
2009,03,20,14,50,14.50
2009,03,20,14,51,11.30
2009,03,20,14,52,11.30
2009,03,20,14,53,3.20
2009,03,20,14,54,3.20
2009,03,20,14,55,11.30
2009,03,20,14,56,8.10
2009,03,20,14,57,3.20
2009,03,20,14,58,3.20
2009,03,20,14,59,4.80
2009,03,20,15,00,6.40
2009,03,20,15,01,12.90
2009,03,20,15,02,4.80
2009,03,20,15,03,3.20
2009,03,20,15,04,1.60
2009,03,20,15,05,1.60
2009,03,20,15,06,8.10
2009,03,20,15,07,6.40
2009,03,20,15,08,11.30
2009,03,20,15,09,20.90
2009,03,20,15,10,17.70
2009,03,20,15,11,16.10
2009,03,20,15,12,14.50
2009,03,20,15,13,14.50
2009,03,20,15,14,16.10
2009,03,20,15,15,29.00
2009,03,20,15,16,25.70
2009,03,20,15,17,29.00
2009,03,20,15,18,20.90
2009,03,20,15,19,17.70
2009,03,20,15,20,16.10
2009,03,20,15,21,27.40
2009,03,20,15,22,29.00
2009,03,20,15,23,35.40
2009,03,20,15,24,20.90
2009,03,20,15,25,29.00
2009,03,20,15,26,25.70
2009,03,20,15,27,11.30
2009,03,20,15,28,33.80
2009,03,20,15,29,29.00
2009,03,20,15,30,32.20
2009,03,20,15,31,30.60
2009,03,20,15,32,56.30
2009,03,20,15,33,19.30
2009,03,20,15,34,20.90
2009,03,20,15,35,9.60
2009,03,20,15,36,24.20
2009,03,20,15,37,14.50
2009,03,20,15,38,33.80
2009,03,20,15,39,22.50
2009,03,20,15,40,43.50
2009,03,20,15,41,29.00
2009,03,20,15,42,45.10
2009,03,20,15,43,24.20
2009,03,20,15,44,9.60
2009,03,20,15,45,30.60
2009,03,20,15,46,24.20
2009,03,20,15,47,32.20
2009,03,20,15,48,14.50
2009,03,20,15,49,22.50
2009,03,20,15,50,29.00
2009,03,20,15,51,25.70
2009,03,20,15,52,20.90
2009,03,20,15,53,29.00
2009,03,20,15,54,37.00
2009,03,20,15,55,22.50
2009,03,20,15,56,30.60
2009,03,20,15,57,25.70
2009,03,20,15,58,22.50
2009,03,20,15,59,16.10
2009,03,20,16,00,20.90
2009,03,20,16,01,19.30
2009,03,20,16,02,24.20
2009,03,20,16,03,30.60
2009,03,20,16,04,27.40
2009,03,20,16,05,14.50
2009,03,20,16,06,25.70
2009,03,20,16,07,29.00
2009,03,20,16,08,20.90
2009,03,20,16,09,9.60
2009,03,20,16,10,24.20
2009,03,20,16,11,37.00
2009,03,20,16,12,17.70
2009,03,20,16,13,24.20
2009,03,20,16,14,17.70
2009,03,20,16,15,29.00
2009,03,20,16,16,38.60
2009,03,20,16,17,32.20
2009,03,20,16,18,30.60
2009,03,20,16,19,24.20
2009,03,20,16,20,27.40
2009,03,20,16,21,29.00
2009,03,20,16,22,38.60
2009,03,20,16,23,17.70
2009,03,20,16,24,25.70
2009,03,20,16,25,22.50
2009,03,20,16,26,25.70
2009,03,20,16,27,22.50
2009,03,20,16,28,33.80
2009,03,20,16,29,16.10
2009,03,20,16,30,8.10
2009,03,20,16,31,22.50
2009,03,20,16,32,30.60
2009,03,20,16,33,20.90
2009,03,20,16,34,40.20
2009,03,20,16,35,37.00
2009,03,20,16,36,14.50
2009,03,20,16,37,17.70
2009,03,20,16,38,32.20
2009,03,20,16,39,32.20
2009,03,20,16,40,29.00
2009,03,20,16,41,29.00
2009,03,20,16,42,40.20
2009,03,20,16,43,22.50
2009,03,20,16,44,27.40
2009,03,20,16,45,17.70
2009,03,20,16,46,16.10
2009,03,20,16,47,20.90
2009,03,20,16,48,11.30
2009,03,20,16,49,20.90
2009,03,20,16,50,19.30
2009,03,20,16,51,25.70
2009,03,20,16,52,11.30
2009,03,20,16,53,37.00
2009,03,20,16,54,16.10
2009,03,20,16,55,22.50
2009,03,20,16,56,30.60
2009,03,20,16,57,16.10
2009,03,20,16,58,11.30
2009,03,20,16,59,16.10
2009,03,20,17,00,20.90
2009,03,20,17,01,17.70
2009,03,20,17,02,19.30
2009,03,20,17,03,14.50
2009,03,20,17,04,14.50
2009,03,20,17,05,22.50
2009,03,20,17,06,17.70
2009,03,20,17,07,17.70
2009,03,20,17,08,16.10
2009,03,20,17,09,27.40
2009,03,20,17,10,22.50
2009,03,20,17,11,19.30
2009,03,20,17,12,14.50
2009,03,20,17,13,38.60
2009,03,20,17,14,19.30
2009,03,20,17,15,16.10
2009,03,20,17,16,17.70
2009,03,20,17,17,33.80
2009,03,20,17,18,19.30
2009,03,20,17,19,8.10
2009,03,20,17,20,38.60
2009,03,20,17,21,22.50
2009,03,20,17,22,4.80
2009,03,20,17,23,6.40
2009,03,20,17,24,4.80
2009,03,20,17,25,16.10
2009,03,20,17,26,12.90
2009,03,20,17,27,20.90
2009,03,20,17,28,24.20
2009,03,20,17,29,9.60
2009,03,20,17,30,19.30
2009,03,20,17,31,22.50
2009,03,20,17,32,17.70
2009,03,20,17,33,20.90
2009,03,20,17,34,6.40
2009,03,20,17,35,14.50
2009,03,20,17,36,8.10
2009,03,20,17,37,25.70
2009,03,20,17,38,11.30
2009,03,20,17,39,6.40
2009,03,20,17,40,19.30
2009,03,20,17,41,4.80
2009,03,20,17,42,16.10
2009,03,20,17,43,17.70
2009,03,20,17,44,14.50
2009,03,20,17,45,8.10
2009,03,20,17,46,20.90
2009,03,20,17,47,11.30
2009,03,20,17,48,14.50
2009,03,20,17,49,9.60
2009,03,20,17,50,16.10
2009,03,20,17,51,8.10
2009,03,20,17,52,29.00
2009,03,20,17,53,30.60
2009,03,20,17,54,12.90